QPF
0.00 0.00 0.00 0.00 0.00 0.00 0.00 0.00 0.00 0.00 0.00 0.00 0.00 0.00 0.00 0.00 0.00 0.00 0.00 0.00 0.00 0.00 0.00 0.00 0.00 0.00 0.00 0.00 0.00 0.00 0.00 0.00 0.00 0.00 0.00 0.00 0.00 0.00 0.00 0.00 0.00 0.00 0.00 0.00
0.00 0.00 0.00 0.00 0.00 0.00 0.00 0.00 0.00 0.00 0.00 0.00 0.00 0.00 0.00 0.00 0.00 0.00 0.00 0.00 0.00 0.00 0.00 0.00 0.00 0.00 0.00 0.00 0.00 0.00 0.00 0.00 0.00 0.00 0.00 0.00 0.00 0.00 0.00 0.00 0.00 0.00 0.00 0.00
0.00 0.00 0.00 0.00 0.00 0.00 0.00 0.00 0.00 0.00 0.00 0.00 0.00 0.00 0.00 0.00 0.00 0.00 0.00 0.00 0.00 0.00 0.00 0.00 0.00 0.00 0.00 0.00 0.00 0.00 0.00 0.00 0.00 0.00 0.00 0.00 0.00 0.00 0.00 0.00 0.00 0.00 0.00 0.00
0.00 0.00 0.00 0.00 0.00 0.00 0.00 0.00 0.00 0.00 0.00 0.00 0.00 0.00 0.00 0.00 0.00 0.00 0.00 0.00 0.00 0.00 0.00 0.00 0.00 0.00 0.00 0.00 0.00 0.00 0.00 0.00 0.00 0.00 0.00 0.00 0.00 0.00 0.00 0.00 0.00 0.00 0.00 0.00
0.00 0.00 0.00 0.00 0.00 0.00 0.00 0.00 0.00 0.00 0.00 0.00 0.00 0.00 0.00 0.00 0.00 0.00 0.00 0.00 0.00 0.00 0.00 0.00 0.00 0.00 0.00 0.00 0.00 0.00 0.00 0.00 0.00 0.00 0.00 0.00 0.00 0.00 0.00 0.00 0.00 0.00 0.00 0.00
0.00 0.00 0.00 0.00 0.00 0.00 0.00 0.00 0.00 0.00 0.00 0.00 0.00 0.00 0.00 0.00 0.00 0.00 0.00 0.00 0.00 0.00 0.00 0.00 0.00 0.00 0.00 0.00 0.00 0.00 0.00 0.00 0.00 0.00 0.00 0.00 0.00 0.00 0.00 0.00 0.00 0.00 0.00 0.00
0.00 0.00 0.00 0.00 0.00 0.00 0.00 0.00 0.00 0.00 0.00 0.00 0.00 0.00 0.00 0.00 0.00 0.00 0.00 0.00 0.00 0.00 0.00 0.00 0.00 0.00 0.00 0.00 0.00 0.00 0.00 0.00 0.00 0.00 0.00 0.00 0.00 0.00 0.00 0.00 0.00 0.00 0.00 0.00
0.00 0.00 0.00 0.00 0.00 0.00 0.00 0.00 0.00 0.00 0.00 0.00 0.00 0.00 0.00 0.00 0.00 0.00 0.00 0.00 0.00 0.00 0.00 0.00 0.00 0.00 0.00 0.00 0.00 0.00 0.00 0.00 0.00 0.00 0.00 0.00 0.00 0.00 0.00 0.00 0.01 0.01 0.01 0.01
0.00 0.00 0.00 0.00 0.00 0.00 0.00 0.00 0.00 0.00 0.00 0.00 0.00 0.00 0.00 0.00 0.00 0.00 0.00 0.00 0.00 0.00 0.00 0.00 0.00 0.00 0.00 0.00 0.00 0.00 0.00 0.00 0.00 0.00 0.00 0.00 0.00 0.00 0.00 0.01 0.01 0.02 0.02 0.01
0.00 0.00 0.00 0.00 0.00 0.00 0.00 0.00 0.00 0.00 0.00 0.00 0.00 0.00 0.00 0.00 0.00 0.00 0.00 0.00 0.00 0.00 0.00 0.00 0.00 0.00 0.00 0.00 0.00 0.00 0.00 0.00 0.00 0.00 0.00 0.00 0.00 0.00 0.01 0.02 0.04 0.04 0.03 0.02
0.00 0.00 0.00 0.00 0.00 0.00 0.00 0.00 0.00 0.00 0.00 0.00 0.00 0.00 0.00 0.00 0.00 0.00 0.00 0.00 0.00 0.00 0.00 0.00 0.00 0.00 0.00 0.00 0.00 0.00 0.00 0.00 0.00 0.00 0.00 0.00 0.00 0.00 0.01 0.02 0.05 0.05 0.03 0.04
0.00 0.00 0.00 0.00 0.00 0.00 0.00 0.00 0.00 0.00 0.00 0.00 0.00 0.00 0.00 0.00 0.00 0.00 0.00 0.00 0.00 0.00 0.00 0.00 0.00 0.00 0.00 0.00 0.00 0.00 0.00 0.00 0.00 0.00 0.00 0.00 0.00 0.00 0.00 0.01 0.02 0.02 0.02 0.04
0.00 0.00 0.00 0.00 0.00 0.00 0.00 0.00 0.00 0.00 0.00 0.00 0.00 0.00 0.00 0.00 0.00 0.00 0.00 0.00 0.00 0.00 0.00 0.00 0.00 0.00 0.00 0.00 0.00 0.00 0.00 0.00 0.00 0.00 0.00 0.00 0.00 0.00 0.00 0.00 0.01 0.01 0.01 0.02
0.00 0.00 0.00 0.00 0.00 0.00 0.00 0.00 0.00 0.00 0.00 0.00 0.00 0.00 0.00 0.00 0.00 0.00 0.00 0.00 0.00 0.00 0.00 0.00 0.00 0.00 0.00 0.00 0.00 0.00 0.00 0.00 0.00 0.00 0.00 0.00 0.00 0.00 0.00 0.00 0.00 0.00 0.00 0.00
0.00 0.00 0.00 0.00 0.00 0.00 0.00 0.00 0.00 0.00 0.00 0.00 0.00 0.00 0.00 0.00 0.00 0.00 0.00 0.00 0.00 0.00 0.00 0.00 0.00 0.00 0.00 0.00 0.00 0.00 0.00 0.00 0.00 0.00 0.00 0.00 0.00 0.00 0.00 0.00 0.00 0.00 0.00 0.00
0.00 0.00 0.00 0.00 0.00 0.00 0.00 0.00 0.00 0.00 0.00 0.00 0.00 0.00 0.00 0.00 0.00 0.00 0.00 0.00 0.00 0.00 0.00 0.00 0.00 0.00 0.00 0.00 0.00 0.00 0.00 0.00 0.00 0.00 0.00 0.00 0.00 0.00 0.00 0.00 0.00 0.00 0.00 0.00
0.00 0.00 0.00 0.00 0.00 0.00 0.00 0.00 0.00 0.00 0.00 0.00 0.00 0.00 0.00 0.00 0.00 0.00 0.00 0.00 0.00 0.00 0.00 0.00 0.00 0.00 0.00 0.00 0.00 0.00 0.00 0.00 0.00 0.00 0.00 0.00 0.00 0.00 0.00 0.00 0.00 0.00 0.00 0.00
0.00 0.00 0.00 0.00 0.00 0.00 0.00 0.00 0.00 0.00 0.00 0.00 0.00 0.00 0.00 0.00 0.00 0.00 0.00 0.00 0.00 0.00 0.00 0.00 0.00 0.00 0.00 0.00 0.00 0.00 0.00 0.00 0.00 0.00 0.00 0.00 0.00 0.00 0.00 0.00 0.00 0.00 0.00 0.00
0.00 0.00 0.00 0.00 0.00 0.00 0.00 0.00 0.00 0.00 0.00 0.00 0.00 0.00 0.00 0.00 0.00 0.00 0.00 0.00 0.00 0.00 0.00 0.00 0.00 0.00 0.00 0.00 0.00 0.00 0.00 0.00 0.00 0.00 0.00 0.00 0.00 0.00 0.00 0.00 0.00 0.00 0.00 0.00
0.00 0.00 0.00 0.00 0.00 0.00 0.00 0.00 0.00 0.00 0.00 0.00 0.00 0.00 0.00 0.00 0.00 0.00 0.00 0.00 0.00 0.00 0.00 0.00 0.00 0.00 0.00 0.00 0.00 0.00 0.00 0.00 0.00 0.00 0.00 0.00 0.00 0.00 0.00 0.01 0.01 0.01 0.01 0.01
0.00 0.00 0.00 0.00 0.00 0.00 0.00 0.00 0.00 0.00 0.00 0.00 0.00 0.00 0.00 0.00 0.00 0.00 0.00 0.00 0.00 0.00 0.00 0.00 0.00 0.00 0.00 0.00 0.00 0.00 0.00 0.00 0.00 0.00 0.00 0.00 0.00 0.00 0.01 0.01 0.01 0.02 0.02 0.02
0.00 0.00 0.00 0.00 0.00 0.00 0.00 0.00 0.00 0.00 0.00 0.00 0.00 0.00 0.00 0.00 0.00 0.00 0.00 0.00 0.00 0.00 0.00 0.00 0.00 0.00 0.00 0.00 0.00 0.00 0.00 0.00 0.00 0.00 0.00 0.00 0.01 0.01 0.01 0.02 0.02 0.02 0.03 0.03
0.00 0.00 0.00 0.00 0.00 0.00 0.00 0.00 0.00 0.00 0.00 0.00 0.00 0.00 0.00 0.00 0.00 0.00 0.00 0.00 0.00 0.00 0.00 0.00 0.00 0.00 0.00 0.00 0.00 0.00 0.00 0.00 0.00 0.00 0.00 0.00 0.01 0.01 0.01 0.02 0.02 0.03 0.04 0.05
0.00 0.00 0.00 0.00 0.00 0.00 0.00 0.00 0.00 0.00 0.00 0.00 0.00 0.00 0.00 0.00 0.00 0.00 0.00 0.00 0.00 0.00 0.00 0.00 0.00 0.00 0.00 0.00 0.00 0.00 0.00 0.00 0.00 0.00 0.00 0.00 0.00 0.00 0.01 0.02 0.02 0.02 0.03 0.04
0.00 0.00 0.00 0.00 0.00 0.00 0.00 0.00 0.00 0.00 0.00 0.00 0.00 0.00 0.00 0.00 0.00 0.00 0.00 0.00 0.00 0.00 0.00 0.00 0.00 0.00 0.00 0.00 0.00 0.00 0.00 0.00 0.00 0.00 0.00 0.00 0.00 0.00 0.01 0.01 0.01 0.02 0.03 0.04
0.00 0.00 0.00 0.00 0.00 0.00 0.00 0.00 0.00 0.00 0.00 0.00 0.00 0.00 0.00 0.00 0.00 0.00 0.00 0.00 0.00 0.00 0.00 0.00 0.00 0.00 0.00 0.00 0.00 0.00 0.00 0.00 0.00 0.00 0.00 0.00 0.00 0.00 0.00 0.01 0.01 0.01 0.02 0.03
0.00 0.00 0.00 0.00 0.00 0.00 0.00 0.00 0.00 0.00 0.00 0.00 0.00 0.00 0.00 0.00 0.00 0.00 0.00 0.00 0.00 0.00 0.00 0.00 0.00 0.00 0.00 0.00 0.00 0.00 0.00 0.00 0.00 0.00 0.00 0.00 0.00 0.00 0.00 0.01 0.01 0.01 0.01 0.02
MSLP
1027.57 1027.27 1026.99 1026.79 1026.69 1026.73 1026.91 1027.24 1027.70 1028.28 1028.96 1029.73 1030.56 1031.43 1032.32 1033.19 1034.02 1034.78 1035.43 1035.95 1036.32 1036.55 1036.64 1036.60 1036.46 1036.23 1035.95 1035.61 1035.22 1034.78 1034.29 1033.73 1033.11 1032.43 1031.69 1030.92 1030.13 1029.34 1028.55 1027.77 1026.98 1026.18 1025.34 1024.45
1027.97 1027.62 1027.28 1026.99 1026.80 1026.75 1026.85 1027.12 1027.56 1028.15 1028.87 1029.71 1030.64 1031.62 1032.61 1033.58 1034.49 1035.30 1035.97 1036.49 1036.85 1037.04 1037.07 1036.98 1036.77 1036.48 1036.12 1035.72 1035.26 1034.77 1034.23 1033.64 1033.00 1032.31 1031.58 1030.82 1030.05 1029.27 1028.49 1027.71 1026.91 1026.09 1025.23 1024.31
1028.36 1027.98 1027.58 1027.23 1026.96 1026.84 1026.87 1027.09 1027.51 1028.11 1028.87 1029.78 1030.78 1031.85 1032.93 1033.97 1034.94 1035.78 1036.47 1036.99 1037.32 1037.48 1037.46 1037.31 1037.04 1036.67 1036.24 1035.76 1035.24 1034.69 1034.10 1033.48 1032.83 1032.14 1031.43 1030.70 1029.96 1029.21 1028.45 1027.68 1026.89 1026.05 1025.17 1024.24
1028.64 1028.24 1027.83 1027.44 1027.14 1026.97 1026.98 1027.18 1027.60 1028.21 1029.01 1029.97 1031.03 1032.15 1033.29 1034.37 1035.37 1036.22 1036.91 1037.42 1037.72 1037.83 1037.78 1037.56 1037.23 1036.80 1036.30 1035.75 1035.16 1034.55 1033.91 1033.26 1032.60 1031.92 1031.24 1030.55 1029.85 1029.14 1028.42 1027.67 1026.89 1026.06 1025.17 1024.23
1028.71 1028.33 1027.93 1027.55 1027.26 1027.11 1027.14 1027.37 1027.82 1028.48 1029.32 1030.31 1031.41 1032.56 1033.71 1034.80 1035.78 1036.62 1037.29 1037.75 1038.02 1038.09 1037.99 1037.73 1037.35 1036.86 1036.30 1035.69 1035.04 1034.38 1033.70 1033.02 1032.35 1031.69 1031.03 1030.38 1029.72 1029.06 1028.38 1027.67 1026.92 1026.10 1025.23 1024.31
1028.52 1028.18 1027.83 1027.52 1027.30 1027.23 1027.34 1027.65 1028.17 1028.89 1029.78 1030.81 1031.92 1033.07 1034.20 1035.25 1036.19 1036.97 1037.58 1038.00 1038.22 1038.25 1038.11 1037.81 1037.39 1036.87 1036.26 1035.60 1034.91 1034.20 1033.49 1032.80 1032.12 1031.46 1030.83 1030.21 1029.60 1028.99 1028.36 1027.69 1026.97 1026.20 1025.36 1024.48
1028.07 1027.80 1027.53 1027.33 1027.23 1027.29 1027.54 1027.97 1028.61 1029.42 1030.38 1031.44 1032.56 1033.68 1034.75 1035.73 1036.59 1037.29 1037.82 1038.17 1038.33 1038.31 1038.14 1037.82 1037.38 1036.83 1036.21 1035.52 1034.80 1034.07 1033.34 1032.63 1031.94 1031.29 1030.68 1030.09 1029.52 1028.95 1028.37 1027.75 1027.08 1026.35 1025.57 1024.75
1027.41 1027.22 1027.07 1027.01 1027.08 1027.32 1027.73 1028.34 1029.11 1030.04 1031.07 1032.16 1033.27 1034.34 1035.34 1036.23 1036.98 1037.57 1038.00 1038.26 1038.36 1038.30 1038.10 1037.77 1037.32 1036.78 1036.15 1035.47 1034.74 1034.00 1033.26 1032.55 1031.86 1031.22 1030.62 1030.06 1029.52 1028.99 1028.45 1027.88 1027.26 1026.59 1025.88 1025.12
1026.65 1026.55 1026.53 1026.63 1026.89 1027.33 1027.94 1028.73 1029.66 1030.70 1031.81 1032.93 1034.02 1035.03 1035.94 1036.71 1037.34 1037.82 1038.14 1038.31 1038.34 1038.25 1038.02 1037.69 1037.25 1036.73 1036.12 1035.46 1034.75 1034.02 1033.29 1032.58 1031.91 1031.28 1030.69 1030.15 1029.64 1029.14 1028.63 1028.10 1027.53 1026.92 1026.27 1025.60
1025.90 1025.90 1026.02 1026.29 1026.74 1027.38 1028.19 1029.16 1030.23 1031.38 1032.54 1033.68 1034.74 1035.69 1036.50 1037.16 1037.67 1038.03 1038.25 1038.33 1038.30 1038.17 1037.94 1037.61 1037.20 1036.70 1036.13 1035.50 1034.83 1034.13 1033.42 1032.73 1032.07 1031.46 1030.89 1030.37 1029.87 1029.39 1028.92 1028.42 1027.90 1027.34 1026.75 1026.14
1025.27 1025.37 1025.63 1026.07 1026.70 1027.52 1028.50 1029.62 1030.81 1032.04 1033.24 1034.38 1035.40 1036.27 1036.99 1037.54 1037.94 1038.19 1038.32 1038.34 1038.26 1038.10 1037.86 1037.55 1037.16 1036.70 1036.18 1035.59 1034.96 1034.30 1033.63 1032.97 1032.34 1031.74 1031.19 1030.68 1030.21 1029.75 1029.29 1028.82 1028.33 1027.81 1027.27 1026.72
1024.81 1025.02 1025.42 1026.01 1026.80 1027.77 1028.89 1030.11 1031.39 1032.66 1033.87 1034.98 1035.94 1036.75 1037.38 1037.84 1038.15 1038.32 1038.38 1038.34 1038.22 1038.05 1037.81 1037.51 1037.15 1036.73 1036.25 1035.70 1035.12 1034.50 1033.87 1033.25 1032.65 1032.08 1031.55 1031.05 1030.59 1030.14 1029.69 1029.24 1028.76 1028.27 1027.76 1027.25
1024.51 1024.85 1025.38 1026.12 1027.04 1028.13 1029.34 1030.62 1031.93 1033.20 1034.39 1035.46 1036.36 1037.10 1037.66 1038.04 1038.28 1038.40 1038.41 1038.34 1038.20 1038.02 1037.78 1037.49 1037.15 1036.76 1036.31 1035.81 1035.26 1034.69 1034.09 1033.51 1032.94 1032.39 1031.88 1031.41 1030.95 1030.51 1030.06 1029.61 1029.14 1028.66 1028.17 1027.67
1024.33 1024.81 1025.48 1026.34 1027.37 1028.54 1029.80 1031.11 1032.41 1033.65 1034.79 1035.80 1036.64 1037.31 1037.81 1038.15 1038.35 1038.43 1038.42 1038.33 1038.19 1038.00 1037.76 1037.48 1037.16 1036.78 1036.35 1035.87 1035.35 1034.81 1034.25 1033.69 1033.15 1032.64 1032.14 1031.68 1031.23 1030.78 1030.34 1029.88 1029.41 1028.92 1028.43 1027.94
1024.19 1024.81 1025.62 1026.60 1027.73 1028.95 1030.23 1031.53 1032.79 1033.98 1035.05 1035.99 1036.77 1037.38 1037.84 1038.15 1038.33 1038.40 1038.39 1038.30 1038.16 1037.97 1037.74 1037.46 1037.14 1036.76 1036.34 1035.88 1035.38 1034.85 1034.32 1033.79 1033.27 1032.77 1032.29 1031.83 1031.38 1030.93 1030.48 1030.01 1029.52 1029.02 1028.52 1028.02
1024.01 1024.79 1025.74 1026.83 1028.03 1029.29 1030.57 1031.84 1033.04 1034.16 1035.16 1036.03 1036.75 1037.33 1037.76 1038.06 1038.24 1038.32 1038.32 1038.25 1038.12 1037.93 1037.70 1037.42 1037.08 1036.70 1036.28 1035.82 1035.32 1034.81 1034.29 1033.78 1033.28 1032.79 1032.32 1031.86 1031.41 1030.96 1030.49 1030.00 1029.49 1028.98 1028.45 1027.94
1023.76 1024.70 1025.78 1026.98 1028.24 1029.52 1030.78 1032.00 1033.15 1034.19 1035.12 1035.93 1036.60 1037.15 1037.57 1037.87 1038.07 1038.18 1038.20 1038.15 1038.03 1037.85 1037.61 1037.33 1036.98 1036.60 1036.17 1035.70 1035.22 1034.71 1034.21 1033.71 1033.22 1032.74 1032.27 1031.81 1031.35 1030.88 1030.39 1029.89 1029.36 1028.82 1028.27 1027.74
1023.46 1024.54 1025.74 1027.02 1028.32 1029.61 1030.85 1032.02 1033.10 1034.08 1034.94 1035.70 1036.34 1036.86 1037.29 1037.60 1037.83 1037.96 1038.01 1037.98 1037.88 1037.71 1037.47 1037.18 1036.84 1036.45 1036.02 1035.56 1035.09 1034.60 1034.11 1033.62 1033.14 1032.68 1032.21 1031.74 1031.27 1030.78 1030.27 1029.73 1029.18 1028.61 1028.03 1027.48
1023.15 1024.35 1025.64 1026.97 1028.29 1029.57 1030.78 1031.89 1032.91 1033.83 1034.64 1035.36 1035.97 1036.50 1036.92 1037.26 1037.51 1037.67 1037.75 1037.74 1037.66 1037.50 1037.27 1036.99 1036.65 1036.27 1035.86 1035.42 1034.97 1034.51 1034.04 1033.58 1033.12 1032.66 1032.19 1031.72 1031.23 1030.71 1030.17 1029.61 1029.02 1028.41 1027.81 1027.21
1022.92 1024.20 1025.55 1026.90 1028.21 1029.45 1030.60 1031.66 1032.62 1033.48 1034.25 1034.94 1035.54 1036.06 1036.50 1036.86 1037.13 1037.32 1037.42 1037.43 1037.36 1037.22 1037.01 1036.74 1036.43 1036.08 1035.70 1035.30 1034.89 1034.47 1034.05 1033.62 1033.19 1032.74 1032.28 1031.79 1031.28 1030.74 1030.17 1029.57 1028.94 1028.29 1027.64 1027.00
1022.83 1024.16 1025.50 1026.83 1028.10 1029.28 1030.37 1031.36 1032.26 1033.07 1033.81 1034.47 1035.06 1035.59 1036.04 1036.41 1036.70 1036.91 1037.02 1037.05 1037.00 1036.88 1036.69 1036.45 1036.18 1035.88 1035.55 1035.21 1034.87 1034.51 1034.14 1033.76 1033.36 1032.94 1032.48 1031.99 1031.46 1030.89 1030.29 1029.64 1028.97 1028.28 1027.57 1026.87
1022.91 1024.23 1025.54 1026.81 1028.00 1029.10 1030.10 1031.02 1031.86 1032.62 1033.33 1033.97 1034.56 1035.09 1035.55 1035.94 1036.24 1036.46 1036.59 1036.63 1036.60 1036.49 1036.34 1036.14 1035.92 1035.67 1035.42 1035.16 1034.89 1034.61 1034.31 1033.98 1033.63 1033.23 1032.79 1032.30 1031.75 1031.15 1030.51 1029.83 1029.11 1028.36 1027.60 1026.83
1023.13 1024.41 1025.64 1026.81 1027.90 1028.90 1029.81 1030.65 1031.43 1032.15 1032.83 1033.46 1034.05 1034.58 1035.06 1035.45 1035.76 1035.99 1036.13 1036.18 1036.16 1036.08 1035.96 1035.81 1035.65 1035.48 1035.30 1035.12 1034.94 1034.74 1034.51 1034.25 1033.94 1033.58 1033.15 1032.66 1032.10 1031.49 1030.81 1030.09 1029.33 1028.53 1027.71 1026.88
1023.41 1024.61 1025.74 1026.79 1027.76 1028.65 1029.47 1030.24 1030.96 1031.65 1032.31 1032.94 1033.53 1034.07 1034.55 1034.96 1035.28 1035.51 1035.66 1035.72 1035.72 1035.67 1035.58 1035.48 1035.38 1035.28 1035.18 1035.09 1034.99 1034.87 1034.72 1034.52 1034.25 1033.92 1033.52 1033.03 1032.47 1031.84 1031.14 1030.39 1029.59 1028.75 1027.88 1026.98
1023.63 1024.73 1025.74 1026.67 1027.52 1028.31 1029.04 1029.74 1030.43 1031.09 1031.75 1032.39 1032.99 1033.55 1034.04 1034.46 1034.79 1035.03 1035.18 1035.26 1035.28 1035.25 1035.21 1035.15 1035.11 1035.07 1035.05 1035.04 1035.01 1034.96 1034.87 1034.73 1034.51 1034.21 1033.82 1033.34 1032.78 1032.14 1031.44 1030.67 1029.85 1028.98 1028.07 1027.13
1023.67 1024.66 1025.55 1026.36 1027.11 1027.81 1028.48 1029.14 1029.80 1030.46 1031.13 1031.78 1032.41 1032.98 1033.50 1033.93 1034.28 1034.53 1034.70 1034.79 1034.83 1034.84 1034.83 1034.82 1034.83 1034.86 1034.90 1034.94 1034.98 1034.99 1034.95 1034.85 1034.66 1034.39 1034.02 1033.55 1033.00 1032.36 1031.66 1030.89 1030.06 1029.19 1028.26 1027.29
1023.42 1024.30 1025.09 1025.80 1026.47 1027.11 1027.74 1028.38 1029.04 1029.72 1030.41 1031.09 1031.75 1032.36 1032.90 1033.35 1033.72 1033.99 1034.18 1034.30 1034.37 1034.41 1034.44 1034.48 1034.53 1034.61 1034.70 1034.80 1034.88 1034.94 1034.93 1034.86 1034.70 1034.44 1034.09 1033.64 1033.09 1032.47 1031.77 1031.02 1030.20 1029.33 1028.41 1027.44
Thickness
5620 5617 5608 5598 5591 5586 5574 5565 5553 5552 5537 5517 5493 5479 5458 5434 5413 5393 5373 5354 5336 5319 5306 5294 5282 5270 5258 5245 5234 5223 5213 5205 5197 5190 5182 5174 5166 5157 5149 5140 5132 5127 5125 5128
5614 5616 5601 5592 5588 5582 5573 5565 5555 5545 5530 5504 5493 5474 5450 5423 5403 5383 5363 5345 5328 5313 5300 5288 5276 5265 5253 5241 5230 5220 5210 5202 5195 5187 5178 5169 5158 5148 5136 5124 5114 5107 5105 5110
5599 5611 5603 5593 5598 5581 5573 5565 5554 5539 5519 5502 5485 5466 5440 5413 5393 5374 5354 5336 5320 5306 5293 5282 5271 5259 5248 5238 5227 5219 5211 5203 5195 5185 5175 5163 5152 5139 5124 5109 5098 5091 5090 5097
5584 5588 5582 5603 5584 5585 5574 5564 5552 5536 5516 5497 5477 5455 5426 5404 5384 5365 5346 5329 5314 5301 5290 5279 5269 5257 5245 5235 5227 5220 5212 5203 5193 5182 5171 5160 5146 5132 5114 5099 5087 5082 5083 5090
5572 5573 5585 5587 5578 5571 5560 5553 5546 5528 5510 5490 5471 5448 5411 5397 5379 5360 5342 5326 5312 5299 5288 5277 5266 5255 5244 5236 5230 5221 5211 5201 5192 5181 5169 5157 5143 5127 5109 5094 5085 5080 5082 5087
5571 5559 5569 5590 5572 5566 5554 5539 5533 5518 5500 5481 5461 5433 5411 5390 5374 5355 5340 5324 5310 5298 5286 5275 5264 5254 5244 5238 5231 5220 5211 5201 5191 5180 5167 5154 5140 5125 5108 5094 5085 5082 5084 5088
5568 5563 5577 5574 5564 5553 5536 5541 5522 5509 5491 5472 5449 5427 5404 5387 5369 5352 5337 5322 5307 5295 5283 5272 5263 5254 5246 5238 5229 5219 5210 5201 5192 5181 5169 5156 5141 5125 5110 5097 5088 5085 5086 5089
5572 5564 5573 5564 5551 5541 5542 5530 5518 5500 5481 5461 5442 5421 5401 5381 5365 5349 5332 5318 5303 5291 5281 5271 5263 5255 5246 5237 5229 5220 5211 5203 5194 5184 5173 5160 5145 5131 5117 5103 5094 5089 5088 5091
5594 5590 5585 5570 5560 5552 5539 5524 5507 5488 5472 5453 5435 5414 5394 5377 5362 5346 5330 5313 5300 5288 5278 5270 5263 5256 5247 5238 5231 5222 5214 5206 5197 5187 5175 5163 5150 5137 5125 5111 5100 5094 5091 5092
5596 5597 5579 5569 5554 5545 5535 5517 5499 5481 5463 5446 5426 5406 5389 5372 5357 5341 5325 5310 5297 5286 5276 5269 5264 5257 5248 5240 5231 5223 5216 5208 5200 5190 5179 5167 5156 5144 5132 5120 5110 5100 5095 5094
5596 5593 5575 5564 5550 5539 5523 5507 5489 5472 5457 5439 5420 5401 5385 5368 5352 5336 5322 5307 5295 5284 5276 5271 5265 5257 5250 5241 5233 5225 5219 5211 5202 5193 5182 5171 5160 5149 5139 5127 5119 5110 5102 5098
5603 5600 5575 5562 5549 5533 5513 5497 5481 5465 5447 5431 5414 5397 5380 5363 5347 5332 5317 5304 5294 5285 5278 5271 5265 5258 5250 5242 5235 5228 5222 5215 5206 5197 5187 5177 5166 5155 5146 5138 5130 5122 5115 5109
5607 5595 5580 5563 5544 5526 5508 5491 5475 5459 5442 5425 5409 5393 5376 5358 5344 5330 5316 5305 5295 5286 5278 5272 5265 5258 5251 5244 5237 5230 5224 5217 5209 5201 5192 5184 5174 5164 5155 5146 5139 5131 5125 5119
5593 5579 5562 5549 5532 5519 5501 5484 5468 5451 5435 5420 5403 5387 5371 5357 5343 5331 5318 5306 5296 5287 5280 5272 5265 5259 5252 5246 5239 5233 5227 5221 5214 5205 5196 5188 5180 5171 5162 5155 5147 5139 5133 5127
5586 5576 5556 5542 5528 5509 5491 5476 5459 5442 5428 5412 5398 5382 5368 5354 5342 5330 5318 5308 5298 5289 5280 5272 5265 5259 5254 5248 5242 5237 5231 5226 5218 5210 5203 5195 5187 5179 5171 5163 5155 5148 5141 5135
5579 5564 5549 5536 5519 5500 5485 5470 5454 5438 5424 5409 5392 5378 5365 5353 5340 5329 5320 5310 5298 5287 5279 5272 5266 5261 5257 5251 5245 5239 5234 5229 5224 5216 5209 5202 5195 5188 5180 5172 5165 5158 5152 5146
5569 5555 5543 5529 5513 5498 5485 5471 5456 5439 5422 5406 5391 5376 5363 5351 5341 5332 5321 5309 5298 5288 5281 5274 5268 5263 5259 5254 5248 5242 5237 5231 5227 5220 5214 5208 5202 5195 5188 5181 5174 5168 5162 5157
5580 5566 5553 5537 5519 5500 5484 5469 5454 5437 5421 5405 5389 5375 5363 5353 5345 5333 5319 5308 5299 5291 5284 5276 5269 5266 5261 5256 5252 5246 5240 5234 5230 5225 5220 5214 5210 5203 5197 5190 5184 5179 5173 5168
5573 5560 5546 5531 5516 5501 5484 5468 5452 5435 5419 5404 5389 5376 5365 5355 5343 5330 5319 5309 5299 5292 5284 5276 5272 5267 5263 5258 5254 5249 5243 5238 5233 5228 5224 5220 5214 5209 5205 5199 5194 5189 5183 5178
5567 5553 5539 5524 5509 5494 5479 5463 5447 5431 5417 5402 5388 5376 5364 5352 5340 5329 5318 5308 5301 5293 5284 5278 5273 5268 5264 5260 5256 5251 5245 5240 5235 5231 5227 5223 5218 5214 5210 5206 5202 5197 5193 5188
5558 5545 5531 5516 5501 5488 5475 5461 5445 5430 5415 5401 5389 5375 5363 5351 5339 5328 5317 5311 5304 5295 5287 5281 5274 5269 5265 5261 5257 5251 5246 5242 5237 5232 5228 5224 5220 5216 5213 5209 5206 5203 5200 5196
5551 5538 5523 5510 5496 5482 5469 5456 5442 5428 5413 5399 5386 5373 5361 5349 5338 5328 5320 5312 5305 5297 5289 5282 5275 5270 5266 5262 5256 5251 5247 5242 5237 5233 5229 5225 5221 5217 5214 5211 5209 5206 5204 5201
5545 5532 5518 5505 5493 5478 5463 5450 5438 5425 5411 5399 5386 5374 5362 5352 5341 5331 5324 5315 5306 5298 5291 5283 5276 5271 5267 5261 5256 5251 5246 5242 5237 5233 5229 5225 5221 5217 5214 5212 5210 5207 5206 5204
5538 5525 5512 5498 5485 5470 5456 5444 5432 5420 5408 5397 5385 5374 5362 5351 5342 5333 5325 5316 5307 5298 5291 5284 5277 5271 5266 5260 5255 5250 5245 5241 5237 5233 5229 5225 5221 5217 5215 5212 5210 5209 5207 5206
5532 5518 5505 5491 5477 5467 5453 5439 5426 5413 5402 5392 5381 5371 5361 5352 5343 5334 5324 5314 5306 5298 5291 5284 5278 5271 5265 5259 5254 5249 5245 5240 5237 5233 5228 5224 5221 5217 5215 5212 5210 5209 5208 5207
5524 5512 5500 5490 5479 5467 5451 5437 5425 5413 5402 5392 5381 5370 5359 5350 5341 5332 5322 5314 5305 5298 5291 5284 5277 5271 5264 5259 5253 5249 5244 5240 5235 5230 5227 5223 5220 5217 5214 5212 5211 5210 5208 5207
5511 5501 5489 5480 5471 5462 5450 5438 5428 5417 5407 5397 5385 5373 5361 5350 5340 5331 5322 5314 5306 5298 5291 5284 5277 5271 5264 5259 5253 5248 5244 5239 5234 5230 5226 5222 5219 5216 5213 5211 5210 5210 5209 5209